Regional Weather Roundup
Issued by NWS

Home | Current Version | Previous Version | Text Only | Print | Product List | Glossary On
Versions: 1 2 3 4 5 6 7 8 9 10 11 12 13 14 15 16 17 18 19 20 21 22 23 24 25 26 27 28 29 30 31 32 33 34 35 36 37 38 39 40 41 42 43 44 45 46 47 48 49 50
000
ASUS46 KLOX 220212
RWRCA

SOUTHERN CALIFORNIA WEATHER ROUNDUP
NATIONAL WEATHER SERVICE OXNARD CALIFORNIA
600 PM PST SUN DEC 21 2014

NOTE: "FAIR" INDICATES FEW OR NO CLOUDS BELOW 12,000 FEET WITH NO
SIGNIFICANT WEATHER AND/OR OBSTRUCTIONS TO VISIBILITY.

  -  STATIONS PRECEEDED BY AN ASTERISK (*) ARE NOT NWS OR FAA
     STATIONS AND ARE NOT SUBJECT TO NWS AND FAA QUALITY CONTROL.

CAZ041-042-087-220300-
LA AND ORANGE COUNTY COASTAL AREAS


CITY           SKY/WX    TMP DP  RH WIND       PRES   REMARKS
L.A. DOWNTOWN  MOCLDY    61  54  77 CALM      30.04S
L.A. AIRPORT   CLOUDY    61  57  87 CALM      30.04S HAZE
LONG BEACH     MOCLDY    62  57  83 SW5       30.04F

CITY           SKY/WX    TMP DP  RH WIND       PRES   REMARKS
AVALON           N/A     61 N/A N/A SW1         N/A
FULLERTON      MOCLDY    61  55  81 CALM      30.03F
*GETTY CENTER    N/A     63  46  55 NE26G39     N/A
HAWTHORNE      CLOUDY    62  56  80 CALM      30.05S
*LOS ALAMITOS  FAIR      58  56  93 CALM      30.05S
*REDONDO BEACH   N/A     60  55  81 CALM      30.03S
SANTA ANA      MOCLDY    64  56  75 CALM      30.04S
STA MONICA APT CLOUDY    62  55  77 CALM      30.04S
*STA MON PIER    N/A     65  56  74 NE3       30.03R
TORRANCE       CLEAR     61  55  82 CALM      30.05S
*UCLA            N/A     68  46  45 NW15G24   30.01S

$$

CAZ547-548-048-220300-
LA COUNTY VALLEYS AND INLAND EMPIRE


CITY           SKY/WX    TMP DP  RH WIND       PRES   REMARKS
BURBANK        CLOUDY    65  49  56 NW8G16    30.04R
VAN NUYS       CLOUDY    65  48  54 N25G35    30.03F

CITY           SKY/WX    TMP DP  RH WIND       PRES   REMARKS
CORONA AIRPORT MOCLDY    55  53  93 CALM      30.05S
*CHATSWORTH      N/A     67  48  51 N12       30.01F
CHINO          MOCLDY    58  51  78 CALM      30.06S HAZE
MARCH AFB      MOCLDY    54  51  89 CALM      30.06S
*NORTHRIDGE      N/A     64  45  48 NW5G13      N/A
ONTARIO        MOCLDY    60  49  66 CALM      30.05S
*PASADENA        N/A     61  52  72 CALM        N/A
POMONA         CLEAR     57  50  77 CALM      30.08
RIVERSIDE      MOCLDY    61  49  64 CALM      30.05S
SAN BERNARDINO MOCLDY    55  46  71 CALM      30.06S HAZE
*SAN GABRIEL     N/A     61  49  65 S3        30.02S
*WHITEMAN AP   MOCLDY    64  46  52 W12G25    30.08F
*WOODLAND HILL   N/A     68  46  45 NE6         N/A

$$

CAZ054-055-220300-
LA AND SAN BERNARDINO COUNTY MOUNTAINS


CITY           SKY/WX    TMP DP  RH WIND       PRES   REMARKS
*BIG BEAR AIRP MOCLDY    37  32  81 CALM      30.24S
MT WILSON NWS    N/A     50  34  53 SE2         N/A
SANDBERG       FOG       47  44  90 N41G48    30.18F VSB 1/4
*WARM SPRINGS    N/A     50  42  75 N10G28      N/A

$$

CAZ028-029-059-060-099-220300-
ANTELOPE VALLEY AND SURROUNDING AREAS


CITY           SKY/WX    TMP DP  RH WIND       PRES   REMARKS
LANCASTER      MOCLDY    53  45  74 W13       30.16R
PALMDALE       MOCLDY    54  45  71 W6        30.17R

CITY           SKY/WX    TMP DP  RH WIND       PRES   REMARKS
29 PALMS       CLOUDY    55  43  63 W7        30.16R
BARSTOW/DAGGET CLOUDY    53  42  66 E5        30.14R
BISHOP         MOCLDY    46  34  62 CALM      30.17R
EDWARDS AFB    MOCLDY    50  46  85 SW2       30.14R
MOJAVE         FAIR      54  45  71 NW8       30.15R
NEEDLES        MOCLDY    54  42  64 SW3       30.07R
VICTORVILLE    MOCLDY    52  45  76 NW7       30.16R

$$

CAZ039-040-220300-
VENTURA AND SANTA BARBARA COUNTY COAST


CITY           SKY/WX    TMP DP  RH WIND       PRES   REMARKS
CAMARILLO      CLOUDY    59  52  77 NW7       30.04S
OXNARD AIRPORT CLOUDY    62  54  74 NE3       30.05R
*POINT MUGU    CLOUDY    63  56  78 NW3       30.05R
SBA APT/GOLETA CLOUDY    72  48  42 NW17G37   30.06R
*SANTA BARBARA   N/A     67  49  52 E5        30.12S
*VENTURA         N/A     60  53  76 CALM      30.08S

$$

CAZ044-045-220300-
VENTURA COUNTY VALLEYS


CITY           SKY/WX    TMP DP  RH WIND       PRES   REMARKS
*SIMI VALLEY     N/A     64  50  60 N13       30.04R
*OJAI            N/A     55  51  87 CALM      30.03R
*FILLMORE        N/A     56  51  83 NE1       29.96S

$$

CAZ053-220300-
VENTURA COUNTY MOUNTAINS


CITY           SKY/WX    TMP DP  RH WIND       PRES   REMARKS
*LOCKWOOD VLY    N/A     45  41  87 MISG        N/A
*ROSE VALLEY     N/A     50  45  81 MISG        N/A

$$

CAZ034-035-036-220300-
CENTRAL COAST AND SANTA YNEZ VALLEY


CITY           SKY/WX    TMP DP  RH WIND       PRES   REMARKS
SAN LUIS OBISP CLOUDY    65  55  70 N8        30.19S
SANTA MARIA    MOCLDY    61  54  77 NW8       30.19R

CITY           SKY/WX    TMP DP  RH WIND       PRES   REMARKS
*CAL POLY SLO    N/A     64  57  77 N7          N/A
*LOMPOC        MOCLDY    61  54  77 NW6       30.18R
*PISMO BEACH     N/A     65  57  75 NE2       30.20R
*SANTA YNEZ    FAIR      63  50  63 N13G20    30.13R

$$

CAZ037-038-051-220300-
SAN LUIS OBISPO COUNTY INTERIOR AND CUYAMA VALLEY


CITY           SKY/WX    TMP DP  RH WIND       PRES   REMARKS
*CUYAMA          N/A     53  51  93 CALM      30.23R
PASO ROBLES    MOCLDY    60  55  83 N9        30.22R

$$

CAZ032-033-061-220300-
SOUTHERN DESERTS


CITY           SKY/WX    TMP DP  RH WIND       PRES   REMARKS
BLYTHE         CLOUDY    57  49  74 CALM      30.05R
IMPERIAL       CLOUDY    59  47  64 NW3       30.04R
PALM SPRINGS   CLOUDY    62  47  57 CALM      30.07S
THERMAL        CLOUDY    56  45  66 CALM      30.04S

$$

ELSEWHERE ACROSS THE WESTERN UNITED STATES AND MEXICO


CITY           SKY/WX    TMP DP  RH WIND       PRES   REMARKS
DENVER, CO     MOCLDY    43  26  51 SW9       29.57R
GRAND CANYON,  MOCLDY    32  29  88 CALM      30.13R
HONOLULU, HI   MOSUNNY   79  66  65 SW6       29.94R
KAHULUI, MAUI  MOSUNNY   82  64  54 VRB6      29.92F
LAKE TAHOE, CA PTCLDY    42  36  79 CALM      30.34R
LAS VEGAS, NV  CLOUDY    53  39  59 S9        30.04S
MAMMOTH LAKES, FAIR      46  27  46 W7        30.31S
MEXICO CITY, M MOCLDY    63  41  45 SE8       30.23R
PHOENIX, AZ    MOCLDY    59  40  49 W3        30.03S
PORTLAND, OR   LGT RAIN  53  50  89 SW9       30.15R
RENO, NV       MOCLDY    57  39  51 S3        30.26R
SALT LAKE CITY CLOUDY    44  40  85 CALM      29.97R
SAN DIEGO, CA  PTCLDY    63  55  75 NW5       30.07R
SAN FRANCISCO, CLOUDY    61  60  97 W20       30.27S
SAN JOSE, CA   MOCLDY    59  57  93 NW9       30.28R
SEATTLE, WA    CLOUDY    50  45  81 S9        30.06R
TIJUANA, MEX   CLOUDY    59  52  77 W6        30.07

$$

STATION/POSITION TIME  TEMP    WIND        PRES    VSBY  WAVE
                       AIR SEA DIR/SP/G                  HT/PER
                 (UTC) (F)     (DEG/KT/KT) (MB)    (MI)  (FT/S)
POINT ARGUELLO B NOT AVBL
WEST SANTA BARBA 0200   62 63  330/ 25/ 31 1019.1F        11/15
POINT CONCEPTION NOT AVBL
EAST SANTA BARBA NOT AVBL
SANTA MONICA BAY 0200   64 64  300/ 12/ 16 1017.2F         6/15


USA.gov is the U.S. government's official web portal to all federal, state and local government web resources and services.